sat.trackr.live / text

‹ back to catalog

COSMOS 2520

NORAD 42907 · 2017-046A

PAYLOAD ACTIVE UNKNOWN

§ Identity

Operator
Country
CIS
Launch date
2017-08-16
Launch site
TYMSC
Launch vehicle
Mass (kg)
RCS (m²)

Purposes: comms

External: N2YO · Heavens-Above · Gunter

§ Orbital elements

Epoch: 2026-09-19T05:12:35.426016Z

Period
1,436.12 min
Inclination
0.0249°
Eccentricity
0.0000813
Mean motion
1.00270105 rev/d
Perigee alt
35,783.6 km
Apogee alt
35,790.5 km
Semi-major
42,165.2 km
B*
0.0000e+0
RAAN
121.5461°
Arg perigee
137.3201°
Mean anomaly
222.4103°
Rev number
3,334

§ Raw data

COSMOS 25201 42907U 17046A   26262.21707669  .00000133  00000+0  00000+0 0  99912 42907   0.0249 121.5461 0000813 137.3201 222.4103  1.00270105 33341

JSON: /api/v1/satellites/42907 · /tle

For live sub-satellite position, see the globe view (requires WebGL).

§ Visibility from observer

Set your observer location to see the next 7 days of passes ≥ 10°. The values pass through the URL so the page stays shareable.

No JS? Fill the form by hand. The geolocation button needs JavaScript.